www.pogodaiklimat.ru

Погода и климат >> Архив погоды >> Иран >> Керман


ПОГОДА в Кермане

  • Прогноз погоды в Кермане
  • Монитор погоды в Кермане

АРХИВ ПОГОДЫ в Кермане

Время (UTC), дата Ветер
(напр.,м/с)
 
Видим.   Явления Облачность Т
(С)
Тd
(С)
f
(%)
Тe
(С)
Тes
(С)
Комфортность P
(гПа)
Po
(гПа)
Тmin
(С)
Tmax
(С)
R
(мм)
R24
(мм)
S
(см)
06 19.08 С 2 20 км ясно +28.8 -17.3 4 +24 +39 комфорт 1003.7 825.5
09 19.08 СЗ 3 20 км 1/1 1000 м
[Cu hum]
+33.4 -14.1 4 +29 +43 жарко 1003.3 824.1
12 19.08 С 3 20 км 1/1 1200 м
[Cu hum]
+34.8 -13.1 4 +30 +35 жарко 1001.6 822.5
15 19.08 СВ 4 20 км 1/1 1000 м
[Cu hum]
+31.2 -12.9 5 +27 +27 жарко 1002.5 822.8 +35.6 666
18 19.08 С 2 20 км ясно +25.9 -16.6 5 +22 +22 комфорт 1003.4 825.0
21 19.08 штиль 0 20 км ясно +24.1 -17.9 5 +21 +21 комфорт 1002.0 824.6
00 20.08 штиль 0 20 км ясно +19.2 -14.4 9 +19 +19 1003.2 824.7
03 20.08 В 2 20 км ясно +15.1 -17.4 9 +15 +17 1007.5 826.1 +13.0 666
06 20.08 В 3 20 км ясно +27.1 -15.8 5 +23 +35 комфорт 1006.0 826.7
09 20.08 З 4 20 км ясно +31.7 -12.5 5 +27 +40 жарко 1002.9 825.0
12 20.08 С 6 20 км ясно +32.8 -11.8 5 +28 +31 жарко 1002.0 823.4
15 20.08 С 5 20 км ясно +30.1 -13.7 5 +26 +26 жарко 1004.6 823.5 +33.6
18 20.08 СЗ 7 20 км ясно +25.0 -17.3 5 +22 +22 комфорт 1004.1 825.0
21 20.08 СЗ 3 20 км ясно +22.0 -17.2 6 +20 +20 1003.4 824.7
00 21.08 Ю 3 20 км ясно +16.4 -17.7 8 +16 +16 1004.8 824.7
03 21.08 Ю 2 20 км ясно +17.6 -15.9 9 +18 +20 1006.6 825.8 +13.6
06 21.08 ЮВ 2 20 км ясно +26.0 -12.5 7 +23 +37 комфорт 1006.0 826.2
09 21.08 ЮЗ 3 20 км ясно +29.2 -14.3 5 +25 +41 комфорт 1003.6 824.3
12 21.08 С 4 20 км ясно +31.4 -12.7 5 +27 +32 жарко 1002.6 822.5
15 21.08 СЗ 4 20 км 1/1 1000 м
[Cu hum]
+29.3 -14.2 5 +25 +25 комфорт 1002.5 822.2 +32.0 666
18 21.08 СЗ 6 20 км ясно +24.4 -15.5 6 +21 +21 комфорт 1003.0 823.7
21 21.08 СЗ 4 20 км ясно +21.6 -14.1 8 +20 +20 1003.1 823.8
00 22.08 ЮЗ 2 20 км ясно +16.5 -13.0 12 +17 +17 1003.9 823.7
03 22.08 В 2 20 км ясно +14.7 -12.9 14 +15 +16 1006.8 825.0 +13.0 666
06 22.08 штиль 0 20 км ясно +25.3 -17.0 5 +22 +41 комфорт 1005.1 825.1
09 22.08 С 3 20 км ясно +28.7 -14.6 5 +25 +40 комфорт 1002.8 823.4 666
12 22.08 СВ 4 20 км 1/1
[Cu hum]
+30.6 -13.3 5 +26 +30 жарко 1002.2 822.1
15 22.08 С 5 20 км 1/1 1000 м
[Cu hum]
+28.6 -14.7 5 +24 +24 комфорт 1003.1 821.7 +31.2 666
18 22.08 С 4 20 км ясно +23.7 -17.5 5 +21 +21 комфорт 1003.1 823.4
21 22.08 СЗ 4 20 км ясно +21.0 -15.1 8 +20 +20 1003.3 823.6
00 23.08 ЮВ 3 20 км ясно +15.4 -11.1 15 +15 +15 1004.6 823.8
03 23.08 ЮВ 2 20 км ясно +14.8 -10.2 17 +15 +17 1007.0 825.0 +13.0 666
06 23.08 З 2 20 км ясно +26.4 -6.4 11 +24 +38 комфорт 1005.0 825.4
09 23.08 С 2 20 км ясно +29.0 -8.6 8 +25 +44 комфорт 1003.3 823.9
12 23.08 С 4 20 км ясно +31.1 -10.7 6 +27 +31 жарко 1003.2 822.8
15 23.08 С 4 20 км ясно +27.8 -7.9 9 +24 +24 комфорт 1004.5 822.8 +31.3
18 23.08 С 2 20 км ясно +23.2 -5.8 14 +21 +21 комфорт 1004.7 824.7
21 23.08 СЗ 4 20 км ясно +21.8 -6.0 15 +20 +20 1003.7 824.4
00 24.08 ЮВ 2 20 км ясно +16.8 -6.9 19 +17 +17 1005.2 824.3
03 24.08 ЮВ 2 20 км ясно +15.6 -7.3 20 +16 +17 1008.1 826.0 +13.0
06 24.08 С 2 20 км ясно +26.3 -16.3 5 +23 +37 комфорт 1006.6 826.5
09 24.08 СЗ 3 20 км 1/1 1000 м
[Cu hum]
+29.1 -17.0 4 +25 +39 комфорт 1003.6 824.3
12 24.08 С 4 20 км 1/1 1200 м
[Cu hum]
+29.8 -16.6 4 +25 +29 комфорт 1003.2 822.7
15 24.08 С 5 20 км 1/1 1200 м
[Sc diur, vesp]
+27.6 -15.4 5 +24 +24 комфорт 1005.3 823.3 +30.6 666
18 24.08 СЗ 5 20 км ясно +23.4 -18.4 5 +20 +20 1004.7 824.8
21 24.08 С 4 20 км ясно +21.3 -17.6 6 +19 +19 1004.0 824.4
00 25.08 ЮЗ 2 20 км ясно +16.0 -13.2 12 +16 +16 1005.0 824.0
03 25.08 В 2 20 км ясно +16.8 -13.5 11 +17 +19 1006.6 824.9 +12.4 666
06 25.08 ЮЗ 2 20 км ясно +25.6 -12.7 7 +22 +36 комфорт 1005.7 825.4
09 25.08 СЗ 8 20 км ясно +29.0 -13.3 5 +25 +28 комфорт 1002.9 823.5
12 25.08 СЗ 5 20 км ясно +30.8 -13.2 5 +26 +30 жарко 1002.8 822.5
15 25.08 С 3 20 км ясно +28.7 -14.6 5 +25 +25 комфорт 1003.2 822.5 +31.8
18 25.08 С 5 20 км ясно +24.7 -11.8 8 +22 +22 комфорт 1003.5 824.0
21 25.08 СЗ 5 20 км ясно +23.0 -13.0 8 +20 +20 1002.8 823.9
00 26.08 С 3 20 км ясно +18.6 -12.4 11 +19 +19 1003.3 823.6
03 26.08 ЮВ 2 20 км ясно +14.7 -14.6 12 +15 +16 1007.1 825.0 +11.4

 

Местоположение метеостанции Керман (Иран): широта 30.25 долгота 56.97 высота над уровнем моря 1754 м.

В архиве по умолчанию представлена погода в Кермане за последнюю неделю. Архивные данные за месяц целиком и за предыдущие месяцы, начиная с января 2011 года, Вы можете получить, выбрав интересующий диапазон дат из раскрывающегося списка и нажав кнопку "Ввод!".


*Определитесь, кто Вы:
робот инопланетянин человек

Внимание! Время в таблицах - всемирное. Для получения местного времени необходимо прибавить поправку, которая равна 3.5 ч.

Смотрите также архив погоды в соседних городах и на ближайших метеорологических станциях:

Погода в Бафте (Иран) (120 км)
Погода в Сирджане (Иран) (149 км)
Погода в Баме (Иран) (188 км)
Погода в Кехнудже (Иран) (263 км)
Погода в Йезде (Иран) (315 км)
Погода в Нехбандане (Иран) (325 км)
Погода в Бендер-Аббасе (Иран) (342 км)
Погода в Фесе (Иран) (349 км)
Погода в Бирдженде (Иран) (360 км)
Погода в Табасе (Иран) (373 км)

Пояснения к столбцам:

Ветер - указаны скорость ветра в м/с - средняя за 10 мин, порывы в срок и между сроками (в фигурных скобках) и направление, откуда дует ветер: С - северный, СВ - северо-восточный, В - восточный, ЮВ - юго-восточный, Ю - южный, ЮЗ - юго-западный, З - западный, СЗ - северо-западный.
Видимость - горизонтальная дальность видимости в метрах или километрах. При видимости от 1 до 10 км при отсутствии осадков обычно наблюдается дымка, при ухудшении видимости до 1 км и менее - туман. В сухую погоду видимость может ухудшаться дымом, пылью или мглою.
Явления - указаны атмосферные явления, наблюдавшиеся в срок или в последний час перед сроком; фигурными скобками обозначены явления, наблюдавшиеся между сроками (за 1-3 часа до срока); квадратными скобками обозначены град или гололедные отложения с указанием их диаметра в мм.
Облачность - указаны через наклонную черту общая и нижняя облачность в баллах и высота нижней границы облаков в метрах; квадратными скобками обозначены формы облаков: Ci - перистые, Cs - перисто-слоистые, Cc - перисто-кучевые, Ac - высококучевые, As - высокослоистые, Sc - слоисто-кучевые, Ns - слоисто-дождевые, Cu - кучевые, Cb - кучево-дождевые. Подробнее классификацию облаков см. в Атласе облаков (PDF).
T - Температура воздуха - температура, измеренная на высоте 2 м над землей.
Td - Температура точки росы - температура, при понижении до которой содержащийся в воздухе водяной пар достигнет насыщения.
f - Относительная влажность воздуха - влажноcть воздуха, измеренная на высоте 2 м над землей.
Te - Эффективная температура - температура, которую ощущает одетый по сезону человек в тени. Характеристика душности погоды. При расчете учитывается влияние влажности воздуха и скорости ветра на теплоощущения человека.
Tes - Эффективная температура на солнце - температура, которую ощущает человек, с поправкой на солнечный нагрев. Характеристика знойности погоды. Зависит от высоты солнца над горизонтом, облачности и скорости ветра. Ночью, в пасмурную погоду, а также при ветре 12 м/с и более поправка равна нулю.
P - Атмосферное давление - приведенное к уровню моря атмосферное давление.
Po - Атмосферное давление - измеренное на уровне метеостанции атмосферное давление.
Tmin - Минимальная температура - минимум температуры воздуха на высоте 2 м над землей.
Tmax - Максимальная температура - максимум температуры воздуха на высоте 2 м над землей.
R - Количество осадков - Количество выпавших осадков за период времени, мм. При наведении курсора мыши на число - период времени, за который выпало указанное количество осадков.
R24 - Количество осадков - Количество выпавших осадков за 24 часа, мм.
S - Снежный покров - Высота снежного покрова, см. При наведении курсора мыши на число - состояние снежного покрова и степень покрытия местности в баллах.